When you browse on this site, cookies collect data to enhance your experience and personalize the content and advertising you see.
Visit our Privacy Policy to learn more. By continuing to use the site, you agree to this use of cookies and data.

Meteo orario Ganja

Oggi, 25 Settembre, Venerdi

Tempo Temperatura Precipitazioni Vento Pressione Umidità
00:00 +21°C° 0.2 mm 1 m/s 726 mm Hg 74%
01:00 +21°C° 0.3 mm 1 m/s 725 mm Hg 75%
02:00 +21°C° 0.3 mm 1 m/s 725 mm Hg 75%
03:00 +20°C° 0.3 mm 1 m/s 725 mm Hg 76%
04:00 +20°C° 0.1 mm 1 m/s 725 mm Hg 78%
05:00 +20°C° 0.1 mm 1 m/s 725 mm Hg 79%
06:00 +17°C° 0.1 mm 0 m/s 725 mm Hg 81%
07:00 +21°C° 0.1 mm 1 m/s 725 mm Hg 75%
08:00 +22°C° 0.1 mm 1 m/s 725 mm Hg 70%
09:00 +23°C° 0.1 mm 1 m/s 725 mm Hg 65%
10:00 +25°C° 0 mm 2 m/s 725 mm Hg 61%
11:00 +26°C° 0 mm 2 m/s 725 mm Hg 56%
12:00 +27°C° 0 mm 3 m/s 724 mm Hg 52%
13:00 +28°C° 0.1 mm 3 m/s 724 mm Hg 49%
14:00 +28°C° 0.1 mm 3 m/s 724 mm Hg 47%
15:00 +29°C° 0.1 mm 3 m/s 723 mm Hg 44%
16:00 +28°C° 0 mm 3 m/s 723 mm Hg 47%
17:00 +26°C° 0 mm 2 m/s 723 mm Hg 49%
18:00 +25°C° 0 mm 2 m/s 723 mm Hg 52%
19:00 +25°C° 0 mm 2 m/s 723 mm Hg 53%
20:00 +24°C° 0 mm 2 m/s 723 mm Hg 55%
21:00 +24°C° 0 mm 2 m/s 724 mm Hg 57%
22:00 +23°C° 0.1 mm 2 m/s 724 mm Hg 58%
23:00 +21°C° 0.1 mm 2 m/s 724 mm Hg 59%

Domani, 26 Settembre, Sabato

Tempo Temperatura Precipitazioni Vento Pressione Umidità
00:00 +21°C° 0.1 mm 2 m/s 723 mm Hg 60%
01:00 +20°C° 0.1 mm 2 m/s 723 mm Hg 63%
02:00 +21°C° 0.1 mm 1 m/s 723 mm Hg 66%
03:00 +20°C° 0.1 mm 1 m/s 723 mm Hg 69%
04:00 +20°C° 0.1 mm 1 m/s 723 mm Hg 70%
05:00 +20°C° 0.1 mm 1 m/s 723 mm Hg 71%
06:00 +18°C° 0.1 mm 0 m/s 723 mm Hg 71%
07:00 +21°C° 0.1 mm 1 m/s 723 mm Hg 67%
08:00 +22°C° 0.1 mm 1 m/s 723 mm Hg 63%
09:00 +23°C° 0.1 mm 1 m/s 723 mm Hg 59%
10:00 +24°C° 0 mm 2 m/s 723 mm Hg 56%
11:00 +25°C° 0 mm 2 m/s 723 mm Hg 52%
12:00 +26°C° 0 mm 2 m/s 723 mm Hg 48%
13:00 +27°C° 0.1 mm 3 m/s 722 mm Hg 45%
14:00 +27°C° 0.1 mm 3 m/s 722 mm Hg 42%
15:00 +28°C° 0.1 mm 3 m/s 722 mm Hg 38%
16:00 +27°C° 0.1 mm 2 m/s 722 mm Hg 41%
17:00 +26°C° 0.1 mm 2 m/s 722 mm Hg 43%
18:00 +25°C° 0.1 mm 1 m/s 723 mm Hg 45%
19:00 +24°C° 0 mm 2 m/s 723 mm Hg 47%
20:00 +24°C° 0 mm 2 m/s 724 mm Hg 48%
21:00 +22°C° 0 mm 3 m/s 724 mm Hg 50%
22:00 +23°C° 0 mm 2 m/s 724 mm Hg 53%
23:00 +21°C° 0 mm 2 m/s 724 mm Hg 56%

Dopodomani, 27 Settembre, Domenica

Tempo Temperatura Precipitazioni Vento Pressione Umidità
00:00 +20°C° 0 mm 2 m/s 724 mm Hg 59%
01:00 +21°C° 0 mm 1 m/s 724 mm Hg 62%
02:00 +20°C° 0 mm 1 m/s 724 mm Hg 65%
03:00 +20°C° 0 mm 1 m/s 724 mm Hg 67%
04:00 +20°C° 0 mm 1 m/s 725 mm Hg 68%
05:00 +19°C° 0 mm 1 m/s 725 mm Hg 69%
06:00 +19°C° 0 mm 1 m/s 725 mm Hg 70%
07:00 +21°C° 0 mm 1 m/s 725 mm Hg 64%
08:00 +22°C° 0 mm 1 m/s 726 mm Hg 58%
09:00 +24°C° 0 mm 1 m/s 726 mm Hg 53%
10:00 +25°C° 0 mm 2 m/s 726 mm Hg 49%
11:00 +26°C° 0 mm 2 m/s 726 mm Hg 45%
12:00 +27°C° 0 mm 2 m/s 726 mm Hg 42%
13:00 +28°C° 0 mm 2 m/s 726 mm Hg 40%
14:00 +28°C° 0 mm 2 m/s 726 mm Hg 37%
15:00 +29°C° 0 mm 3 m/s 726 mm Hg 35%
16:00 +28°C° 0 mm 2 m/s 726 mm Hg 37%
17:00 +26°C° 0 mm 2 m/s 726 mm Hg 40%
18:00 +25°C° 0 mm 2 m/s 727 mm Hg 42%
19:00 +24°C° 0 mm 2 m/s 727 mm Hg 44%
20:00 +24°C° 0 mm 3 m/s 728 mm Hg 47%
21:00 +22°C° 0 mm 4 m/s 728 mm Hg 49%
22:00 +21°C° 0 mm 4 m/s 729 mm Hg 52%
23:00 +20°C° 0 mm 4 m/s 729 mm Hg 55%

28 Settembre, Lunedi

Tempo Temperatura Precipitazioni Vento Pressione Umidità
00:00 +19°C° 0 mm 3 m/s 729 mm Hg 58%
01:00 +19°C° 0 mm 3 m/s 729 mm Hg 60%
02:00 +18°C° 0 mm 2 m/s 729 mm Hg 62%
03:00 +18°C° 0 mm 2 m/s 729 mm Hg 64%
04:00 +18°C° 0 mm 2 m/s 730 mm Hg 66%
05:00 +18°C° 0 mm 1 m/s 730 mm Hg 68%
06:00 +18°C° 0 mm 1 m/s 730 mm Hg 69%
07:00 +19°C° 0 mm 1 m/s 730 mm Hg 64%
08:00 +19°C° 0 mm 2 m/s 730 mm Hg 60%
09:00 +21°C° 0 mm 2 m/s 730 mm Hg 55%
10:00 +23°C° 0 mm 2 m/s 730 mm Hg 51%
11:00 +24°C° 0 mm 2 m/s 730 mm Hg 48%
12:00 +25°C° 0 mm 3 m/s 730 mm Hg 44%
13:00 +26°C° 0 mm 3 m/s 730 mm Hg 43%
14:00 +26°C° 0 mm 3 m/s 730 mm Hg 41%
15:00 +27°C° 0 mm 3 m/s 729 mm Hg 39%
16:00 +26°C° 0 mm 3 m/s 730 mm Hg 40%
17:00 +24°C° 0 mm 3 m/s 730 mm Hg 42%
18:00 +23°C° 0 mm 2 m/s 730 mm Hg 44%
19:00 +22°C° 0 mm 3 m/s 730 mm Hg 45%
20:00 +21°C° 0 mm 3 m/s 730 mm Hg 47%
21:00 +20°C° 0 mm 4 m/s 731 mm Hg 49%
22:00 +19°C° 0 mm 3 m/s 731 mm Hg 52%
23:00 +19°C° 0 mm 3 m/s 730 mm Hg 55%

29 Settembre, Martedi

Tempo Temperatura Precipitazioni Vento Pressione Umidità
00:00 +18°C° 0 mm 3 m/s 730 mm Hg 59%
01:00 +17°C° 0 mm 2 m/s 730 mm Hg 61%
02:00 +17°C° 0 mm 2 m/s 730 mm Hg 64%
03:00 +16°C° 0 mm 1 m/s 729 mm Hg 66%
04:00 +16°C° 0 mm 1 m/s 729 mm Hg 68%
05:00 +15°C° 0 mm 1 m/s 729 mm Hg 70%
06:00 +14°C° 0 mm 0 m/s 729 mm Hg 71%
07:00 +18°C° 0 mm 1 m/s 729 mm Hg 66%
08:00 +19°C° 0 mm 1 m/s 729 mm Hg 61%
09:00 +20°C° 0 mm 1 m/s 729 mm Hg 55%
10:00 +21°C° 0 mm 2 m/s 729 mm Hg 52%
11:00 +23°C° 0 mm 2 m/s 728 mm Hg 48%
12:00 +24°C° 0 mm 3 m/s 728 mm Hg 45%
13:00 +25°C° 0 mm 3 m/s 727 mm Hg 44%
14:00 +25°C° 0 mm 3 m/s 727 mm Hg 42%
15:00 +26°C° 0 mm 3 m/s 727 mm Hg 41%
16:00 +25°C° 0 mm 3 m/s 726 mm Hg 43%
17:00 +22°C° 0 mm 3 m/s 726 mm Hg 45%
18:00 +21°C° 0 mm 3 m/s 726 mm Hg 47%
19:00 +21°C° 0 mm 2 m/s 726 mm Hg 49%
20:00 +20°C° 0 mm 2 m/s 726 mm Hg 51%
21:00 +19°C° 0 mm 2 m/s 727 mm Hg 53%
22:00 +19°C° 0 mm 2 m/s 726 mm Hg 58%
23:00 +18°C° 0 mm 3 m/s 726 mm Hg 63%

30 Settembre, Mercoledi

Tempo Temperatura Precipitazioni Vento Pressione Umidità
00:00 +17°C° 0 mm 3 m/s 726 mm Hg 68%
01:00 +17°C° 0 mm 2 m/s 726 mm Hg 70%
02:00 +16°C° 0 mm 2 m/s 725 mm Hg 72%
03:00 +16°C° 0 mm 1 m/s 725 mm Hg 74%
04:00 +16°C° 0 mm 1 m/s 725 mm Hg 76%
05:00 +15°C° 0 mm 1 m/s 725 mm Hg 77%
06:00 +15°C° 0 mm 1 m/s 724 mm Hg 78%
07:00 +16°C° 0 mm 1 m/s 724 mm Hg 73%
08:00 +18°C° 0 mm 2 m/s 724 mm Hg 68%
09:00 +19°C° 0 mm 2 m/s 724 mm Hg 63%
10:00 +20°C° 0 mm 2 m/s 724 mm Hg 60%
11:00 +21°C° 0 mm 3 m/s 723 mm Hg 57%
12:00 +22°C° 0 mm 3 m/s 723 mm Hg 54%
13:00 +24°C° 0 mm 3 m/s 723 mm Hg 53%
14:00 +24°C° 0 mm 3 m/s 722 mm Hg 51%
15:00 +25°C° 0 mm 3 m/s 722 mm Hg 50%
16:00 +24°C° 0 mm 3 m/s 722 mm Hg 52%
17:00 +23°C° 0 mm 2 m/s 722 mm Hg 55%
18:00 +21°C° 0 mm 2 m/s 722 mm Hg 57%
19:00 +20°C° 0 mm 2 m/s 723 mm Hg 59%
20:00 +20°C° 0 mm 2 m/s 723 mm Hg 61%
21:00 +19°C° 0 mm 3 m/s 723 mm Hg 63%
22:00 +19°C° 0.1 mm 3 m/s 723 mm Hg 65%
23:00 +18°C° 0.1 mm 2 m/s 723 mm Hg 67%
Mostrare altro